Location: Colle Santa Colomba
(42.0333°N, 12.5667°E)
Time: 03:19:47
(UTC+00:00)

Cosmos 1606 Rocket - Pass Details

Date: 25 October 2021
Orbit: 602 x 633 km, 82.5° (Epoch: 05 December)

Event Time Altitude Azimuth Distance (km) Brightness Sun altitude
Rises 17:33:28 0° 163° (SSE) 2,913 6.9 -15.6°
Reaches altitude 10° 17:35:52 10° 153° (SSE) 2,010 5.9 -16.0°
Maximum altitude 17:39:49 32° 90° (E) 1,089 4.2 -16.7°
Enters shadow 17:40:22 31° 76° (ENE) 1,113 4.3 -16.8°
Exits shadow 17:45:39 - 20° (NNE) 2,714 6.6 -17.8°
Sets 17:46:13 0° 18° (NNE) 2,929 6.8 -17.9°
